Weather History for KY63 - November, 2012

Change the Weather History Date:

Saturday, November 10, 2012

  Actual Average (KFFM) Record (KFFM)
Temperature  
Mean Temperature 38 °F -  
Max Temperature 44 °F 37 °F 68 °F (1954)
Min Temperature 32 °F 22 °F -1 °F (1979)
Degree Days  
Heating Degree Days 27    
Moisture  
Dew Point 39 °F    
Average Humidity 96    
Maximum Humidity 100    
Minimum Humidity 81    
Precipitation  
Precipitation 0.03 in - - ()
Sea Level Pressure  
Sea Level Pressure 29.58 in    
Wind  
Wind Speed 17 mph (East)    
Max Wind Speed 22 mph    
Max Gust Speed 30 mph    
Visibility 4 miles    
Events Fog , Rain , Thunderstorm    
Averages and records for this station are not official NWS values.
T = Trace of Precipitation, MM = Missing Value Source: NWS Daily Summary

Daily Weather History Graph

Daily Weather History Graph

Search for Another Location

Airport or City:

Trip Planner

Search our weather history database for the weather conditions in past years. The results will help you decide how hot, cold, wet, or windy it might be!

Date:

Astronomy

Nov. 10, 2012 Rise Set
Actual Time 7:18 AM CST 4:57 PM CST
Civil Twilight 6:46 AM CST 5:29 PM CST
Nautical Twilight 6:10 AM CST 6:05 PM CST
Astronomical Twilight 5:35 AM CST 6:40 PM CST
Moon 3:13 AM CST (11/10) 2:53 PM CST (11/10)
Length of Visible Light 10h 43m
Length of Day
9h 39m
Waning Crescent, 14% of the Moon is Illuminated
Nov 10
Waning Crescent
Nov 13
New
Nov 20
First Quarter
Nov 28
Full
Dec 6
Last Quarter

Hourly Weather History & Observations

Time (CST) Temp. Windchill Dew Point Humidity Pressure Visibility Wind Dir Wind Speed Gust Speed Precip Events Conditions
12:15 AM 39.2 °F 29.6 °F 35.6 °F 87% 29.84 in 10.0 mi East 19.6 mph 24.2 mph N/A   Overcast
12:35 AM 39.2 °F 29.0 °F 35.6 °F 87% 29.83 in 10.0 mi East 21.9 mph 29.9 mph N/A   Overcast
12:55 AM 39.2 °F 29.0 °F 35.6 °F 87% 29.82 in 10.0 mi East 21.9 mph 29.9 mph N/A   Overcast
1:15 AM 39.2 °F 30.2 °F 35.6 °F 87% 29.81 in 10.0 mi East 17.3 mph 26.5 mph N/A   Overcast
1:35 AM 39.2 °F 29.3 °F 35.6 °F 87% 29.79 in 10.0 mi East 20.7 mph 26.5 mph N/A   Overcast
1:55 AM 39.2 °F 30.2 °F 35.6 °F 87% 29.79 in 10.0 mi East 17.3 mph 25.3 mph N/A   Overcast
2:15 AM 41.0 °F 31.6 °F 35.6 °F 81% 29.77 in 10.0 mi East 20.7 mph 27.6 mph N/A   Overcast
2:35 AM 39.2 °F 29.3 °F 35.6 °F 87% 29.77 in 10.0 mi East 20.7 mph 26.5 mph N/A   Overcast
2:55 AM 41.0 °F 31.4 °F 35.6 °F 81% 29.76 in 10.0 mi East 21.9 mph 28.8 mph N/A   Overcast
3:15 AM 39.2 °F 29.8 °F 35.6 °F 87% 29.75 in 10.0 mi East 18.4 mph 25.3 mph N/A   Overcast
3:35 AM 41.0 °F 32.5 °F 35.6 °F 81% 29.75 in 10.0 mi East 17.3 mph 23.0 mph N/A   Overcast
3:55 AM 39.2 °F 29.8 °F 35.6 °F 87% 29.74 in 7.0 mi East 18.4 mph 26.5 mph N/A Rain Light Rain
4:15 AM 39.2 °F 29.6 °F 37.4 °F 93% 29.72 in 2.5 mi East 19.6 mph 24.2 mph N/A Rain Light Rain
4:35 AM 39.2 °F 30.2 °F 37.4 °F 93% 29.71 in 2.0 mi East 17.3 mph 23.0 mph N/A Rain Light Rain
4:55 AM 39.2 °F 30.8 °F 37.4 °F 93% 29.70 in 4.0 mi East 15.0 mph 23.0 mph N/A   Overcast
5:15 AM 39.2 °F 30.5 °F 37.4 °F 93% 29.69 in 2.5 mi East 16.1 mph - N/A Rain Light Rain
5:35 AM 39.2 °F 30.2 °F 37.4 °F 93% 29.69 in 4.0 mi East 17.3 mph 20.7 mph N/A   Overcast
5:55 AM 39.2 °F 30.8 °F 37.4 °F 93% 29.69 in 3.0 mi East 15.0 mph 20.7 mph N/A   Overcast
6:15 AM 39.2 °F 29.8 °F 37.4 °F 93% 29.69 in 3.0 mi East 18.4 mph 21.9 mph N/A Rain Light Rain
6:35 AM 37.4 °F 28.5 °F 37.4 °F 100% 29.68 in 2.0 mi East 15.0 mph 21.9 mph N/A Rain Light Rain
6:55 AM 37.4 °F 28.2 °F 37.4 °F 100% 29.67 in 2.5 mi East 16.1 mph 24.2 mph N/A   Overcast
7:15 AM 39.2 °F 29.8 °F 37.4 °F 93% 29.66 in 3.0 mi East 18.4 mph - N/A   Overcast
7:35 AM 39.2 °F 30.5 °F 37.4 °F 93% 29.65 in 5.0 mi East 16.1 mph - N/A   Overcast
7:55 AM 39.2 °F 30.2 °F 37.4 °F 93% 29.64 in 10.0 mi East 17.3 mph 24.2 mph N/A   Overcast
8:15 AM 39.2 °F 30.2 °F 37.4 °F 93% 29.63 in 5.0 mi East 17.3 mph 24.2 mph N/A   Overcast
8:35 AM 39.2 °F 29.8 °F 37.4 °F 93% 29.63 in 5.0 mi East 18.4 mph 23.0 mph N/A   Overcast
8:55 AM 39.2 °F 29.8 °F 37.4 °F 93% 29.61 in 4.0 mi East 18.4 mph 26.5 mph N/A   Overcast
9:35 AM 39.2 °F 29.6 °F 37.4 °F 93% 29.59 in 4.0 mi East 19.6 mph 23.0 mph N/A   Overcast
9:55 AM 39.2 °F 30.2 °F 37.4 °F 93% 29.59 in 2.5 mi East 17.3 mph 23.0 mph N/A   Overcast
10:15 AM 39.2 °F 30.8 °F 37.4 °F 93% 29.58 in 1.5 mi East 15.0 mph 21.9 mph N/A   Overcast
10:35 AM 39.2 °F 30.2 °F 39.2 °F 100% 29.57 in 1.5 mi East 17.3 mph 21.9 mph N/A Rain Light Rain
10:55 AM 41.0 °F 32.8 °F 39.2 °F 93% 29.57 in 1.2 mi East 16.1 mph - N/A Rain Light Rain
11:15 AM 41.0 °F 33.1 °F 41.0 °F 100% 29.57 in 1.5 mi East 15.0 mph 18.4 mph N/A Rain Light Rain
11:35 AM 41.0 °F 33.1 °F 41.0 °F 100% 29.57 in 2.0 mi East 15.0 mph 19.6 mph N/A   Overcast
11:55 AM 41.0 °F 33.5 °F 41.0 °F 100% 29.55 in 1.8 mi East 13.8 mph - N/A   Overcast
12:15 PM 41.0 °F 33.5 °F 41.0 °F 100% 29.54 in 1.5 mi East 13.8 mph - N/A   Overcast
12:35 PM 41.0 °F 33.1 °F 41.0 °F 100% 29.53 in 1.8 mi East 15.0 mph - N/A   Overcast
12:55 PM 41.0 °F 32.8 °F 41.0 °F 100% 29.52 in 1.8 mi East 16.1 mph 20.7 mph N/A   Overcast
1:15 PM 41.0 °F 33.1 °F 41.0 °F 100% 29.50 in 1.5 mi East 15.0 mph 21.9 mph N/A   Overcast
1:35 PM 41.0 °F 33.1 °F 41.0 °F 100% 29.49 in 1.8 mi East 15.0 mph 20.7 mph N/A   Overcast
1:55 PM 42.8 °F 35.4 °F 41.0 °F 93% 29.48 in 1.5 mi East 15.0 mph - N/A   Overcast
2:15 PM 42.8 °F 35.1 °F 42.8 °F 100% 29.47 in 1.5 mi East 16.1 mph - N/A   Overcast
2:35 PM 42.8 °F 35.4 °F 42.8 °F 100% 29.47 in 2.0 mi East 15.0 mph 20.7 mph N/A   Overcast
2:55 PM 42.8 °F 35.4 °F 42.8 °F 100% 29.47 in 2.0 mi East 15.0 mph - N/A   Overcast
3:15 PM 42.8 °F 35.4 °F 42.8 °F 100% 29.46 in 2.5 mi East 15.0 mph 20.7 mph N/A   Overcast
3:35 PM 42.8 °F 36.6 °F 42.8 °F 100% 29.47 in 4.0 mi East 11.5 mph - N/A   Overcast
3:55 PM 42.8 °F 35.8 °F 42.8 °F 100% 29.45 in 5.0 mi East 13.8 mph - N/A   Overcast
4:15 PM 42.8 °F 35.8 °F 42.8 °F 100% 29.45 in 5.0 mi East 13.8 mph - N/A   Overcast
4:35 PM 42.8 °F 35.8 °F 42.8 °F 100% 29.45 in 4.0 mi East 13.8 mph 18.4 mph N/A   Overcast
4:55 PM 42.8 °F 36.6 °F 42.8 °F 100% 29.45 in 4.0 mi East 11.5 mph - N/A   Overcast
5:15 PM 42.8 °F 36.2 °F 42.8 °F 100% 29.46 in 2.5 mi East 12.7 mph - N/A   Overcast
5:35 PM 44.6 °F 38.8 °F 42.8 °F 93% 29.47 in 2.5 mi ESE 11.5 mph - N/A   Overcast
5:55 PM 44.6 °F 38.8 °F 44.6 °F 100% 29.48 in 1.2 mi ESE 11.5 mph - N/A   Overcast
6:15 PM 42.8 °F 37.0 °F 42.8 °F 100% 29.48 in 0.8 mi ESE 10.4 mph - N/A   Overcast
6:35 PM 44.6 °F 40.7 °F 44.6 °F 100% 29.48 in 1.0 mi ESE 6.9 mph - N/A   Drizzle
6:55 PM 42.8 °F 38.6 °F 42.8 °F 100% 29.46 in 1.0 mi East 6.9 mph - N/A   Light Drizzle
7:15 PM 42.8 °F 40.1 °F 42.8 °F 100% 29.45 in 0.8 mi East 4.6 mph - N/A   Overcast
7:35 PM 42.8 °F 41.1 °F 42.8 °F 100% 29.44 in 0.5 mi East 3.5 mph - N/A Fog Fog
7:55 PM 44.6 °F 42.2 °F 44.6 °F 100% 29.43 in 0.5 mi East 4.6 mph - N/A Fog Fog
8:15 PM 44.6 °F 41.4 °F 44.6 °F 100% 29.43 in 0.5 mi ESE 5.8 mph - N/A Rain , Thunderstorm Light Thunderstorms and Rain
8:35 PM 44.6 °F 41.4 °F 44.6 °F 100% 29.42 in 1.2 mi ESE 5.8 mph - 0.02 in Rain Rain
8:55 PM 44.6 °F 43.1 °F 44.6 °F 100% 29.43 in 1.8 mi SE 3.5 mph - 0.02 in Rain Light Rain
9:15 PM 44.6 °F 43.1 °F 44.6 °F 100% 29.43 in 1.5 mi SSW 3.5 mph - N/A   Overcast
9:35 PM 41.0 °F 33.9 °F 41.0 °F 100% 29.45 in 0.5 mi WNW 12.7 mph - 0.01 in Fog Fog
9:55 PM 39.2 °F 31.6 °F 39.2 °F 100% 29.47 in 1.8 mi WNW 12.7 mph 18.4 mph 0.01 in   Overcast
10:35 PM 37.4 °F 26.9 °F 35.6 °F 93% 29.49 in 2.0 mi WNW 20.7 mph 25.3 mph N/A   Overcast
10:55 PM 33.8 °F 22.5 °F 33.8 °F 100% 29.50 in 2.5 mi WNW 19.6 mph 26.5 mph N/A   Overcast
11:15 PM 32.0 °F 20.5 °F 32.0 °F 100% 29.50 in 2.5 mi WNW 18.4 mph 25.3 mph N/A   Light Drizzle
11:35 PM 32.0 °F 21.2 °F 32.0 °F 100% 29.52 in 3.0 mi NW 16.1 mph 25.3 mph N/A   Overcast
11:55 PM 32.0 °F 19.5 °F 32.0 °F 100% 29.52 in 3.0 mi NW 21.9 mph - N/A   Overcast